046  
ASUS41 KPHI 241613  
RWRPHI  
 
REGIONAL WEATHER ROUNDUP  
NATIONAL WEATHER SERVICE MOUNT HOLLY NJ  
1200 PM EDT SUN JUN 24 2018  
 
NOTE: "FAIR" INDICATES FEW OR NO CLOUDS BELOW 12,000 FEET WITH NO  
SIGNIFICANT WEATHER AND/OR S TO VISIBILITY
.  
 
* = STATION DOES NOT REPORT PRECIPITATION (E.G. RAIN, SNOW, ETC.)  
OR FOG.
 
 
NJZ015>026-241700-  
SOUTHERN NEW JERSEY  
 
CITY SKY/WX TMP DP RH WIND PRES REMARKS
 
POMONA FAIR 81 73 76 S9 29.86  
WILDWOOD* FAIR 83 73 72 S7 29.87F  
MILLVILLE FAIR 82 70 66 W7 29.86S  
WRIGHTSTOWN MOSUNNY 83 69 62 W10 29.82F  
MOUNT HOLLY FAIR 83 68 60 W12G17 29.83F  
TRENTON FAIR 84 67 56 W8 29.83S  
 

 
NJZ001>014-241700-  
NORTHERN NEW JERSEY  
 
CITY SKY/WX TMP DP RH WIND PRES REMARKS
 
SUSSEX PTSUNNY 81 69 67 VRB6 29.81F  
ANDOVER* N/A N/A N/A N/A MISG N/A  
MORRISTOWN MOSUNNY 81 70 69 W9 29.83S  
NEWARK PTSUNNY 81 68 64 S10 29.82F  
TETERBORO FAIR 81 69 67 S10 29.81F  
CALDWELL FAIR 80 68 66 VRB6G17 29.82F  
SOMERVILLE PTSUNNY 81 70 69 SW6 29.81S  
ALLAIRE* FAIR 82 68 62 SW9 29.85F  
TOMS RIVER* PTSUNNY 85 70 60 SW8 29.85F  
 

 
PAZ043-044-047-054-055-060>062-066>071-241700-  
EASTERN PENNSYLVANIA  
 
CITY SKY/WX TMP DP RH WIND PRES REMARKS
 
PHILADELPHIA FAIR 83 66 56 SW9 29.84F  
NORTH PHILA FAIR 87 69 54 W10 29.85F HX 91  
BLUE BELL* FAIR 82 68 61 W10 29.86S  
DOYLESTOWN PTSUNNY 83 68 60 W8 29.84S  
QUAKERTOWN* MOSUNNY 82 68 61 W7G13 29.85F  
PERKASIE* FAIR 79 70 73 W7 29.86F  
POTTSTOWN FAIR 80 66 62 W8 29.86F  
LANCASTER FAIR 82 68 62 W9 29.85F  
COATESVILLE FAIR 82 66 57 W9 29.88S  
READING FAIR 83 70 64 W8 29.83F  
ALLENTOWN FAIR 80 66 62 SW7 29.83F  
MOUNT POCONO PTSUNNY 73 64 73 W14 29.88F  
HAZLETON PTSUNNY 79 64 61 W3 29.91F  
LEHIGHTON PTSUNNY 79 66 65 W3 29.85S  
WILKES BARRE PTSUNNY 77 65 66 SW12 29.83F  
 

 
DEZALL-MDZ008-012-015-019-020-241700-  
DELAWARE AND EASTERN MARYLAND  
 
CITY SKY/WX TMP DP RH WIND PRES REMARKS
 
WILMINGTON FAIR 86 66 51 W15G22 29.85S  
DOVER FAIR 85 70 59 W3 29.85S HX 90  
GEORGETOWN FAIR 85 69 58 W8 29.88S  
EASTON PTSUNNY 86 66 51 W6 29.91R  
PATUXENT N/A N/A N/A N/A MISG N/A  
OCEAN CITY FAIR 84 77 79 SE7 29.88S HX 94  
WALLOPS ISLAND FAIR 88 75 65 VRB3 29.88S HX 97  
CAMBRIDGE SUNNY 86 70 58 VRB5 29.87S HX 90  
SALISBURY FAIR 87 72 60 W8 29.87S HX 93  
 

 
PAZ001-021-NYZ056-072-MDZ011-DCZ001-241700-  
OTHER NEARBY LOCATIONS  
 
CITY SKY/WX TMP DP RH WIND PRES REMARKS
 
HARRISBURG PTSUNNY 82 67 60 W13 29.84S  
STATE COLLEGE PTSUNNY 75 66 73 SW8 29.89R  
WILLIAMSPORT CLOUDY 79 65 62 W12 29.82S  
BINGHAMTON CLOUDY 71 63 75 VRB3 29.84F  
NEW YORK CITY FAIR 78 68 71 VRB5 29.85F  
BALTIMORE PTSUNNY 86 69 56 W10 29.85F HX 90  
WASHINGTON DC N/A 83 72 69 MISG 29.87S  
 

 
 
 
CLICK HERE TO GO TO PREVIOUS BULLETINS.

The Nexlab PA Page
The Nexlab NJ Page
The Nexlab DE Page
The Nexlab MD Page Main Text Page